Regional Weather Roundup
Issued by NWS

Home | Current Version | Previous Version | Text Only | Print | Product List | Glossary On
Versions: 1 2 3 4 5 6 7 8 9 10 11 12 13 14 15 16 17 18 19 20 21 22 23 24 25 26 27
000
ASUS45 KREV 290710
RWRNV
NEVADA REGIONAL WEATHER ROUNDUP
NATIONAL WEATHER SERVICE RENO NV
1200 AM PDT SAT APR 29 2017

NOTE: "FAIR" INDICATES FEW OR NO CLOUDS BELOW 12,000 FEET WITH NO
SIGNIFICANT WEATHER AND/OR OBSTRUCTIONS TO VISIBILITY.

NVZ001-003-004-290800-
WESTERN NEVADA

CITY           SKY/WX    TMP DP  RH WIND       PRES   REMARKS
RENO           CLEAR     43  16  33 S3        30.21S
CARSON CITY    FAIR      37  16  41 CALM      30.23R
MINDEN         FAIR      32  16  51 NE6       30.23R
FALLON         CLEAR     36  17  46 N3        30.21R
LOVELOCK       CLEAR     33  17  51 CALM      30.22R
HAWTHORNE      CLEAR     43  18  36 CALM      30.22R
$$

NVZ002-CAZ072-073-290800-
NORTHERN AND CENTRAL SIERRA

CITY           SKY/WX    TMP DP  RH WIND       PRES   REMARKS
S. LAKE TAHOE  CLEAR     38  12  34 MISG      30.16S
TRUCKEE        CLEAR     30  16  55 E3        30.18S
SQUAW VLY 8000   N/A     28  16  59 NE7         N/A
SUSANVILLE     CLEAR     39  25  56 CALM      30.22R
MAMMOTH LAKES  FAIR      29  10  45 N6        30.22S
BRIDGEPORT       N/A     31  11  43 CALM      30.18R
$$

NVZ030-031-036-290800-
NORTHERN NEVADA

CITY           SKY/WX    TMP DP  RH WIND       PRES   REMARKS
ELKO           CLEAR     36  23  59 CALM      30.17R
WINNEMUCCA     CLEAR     29  24  82 W5        30.21R
WENDOVER       MOCLDY    46  22  38 N14G23    30.10R
$$

NVZ035-037-290800-
CENTRAL NEVADA

CITY           SKY/WX    TMP DP  RH WIND       PRES   REMARKS
ELY            MOCLDY    28  19  69 NW7       30.11R
EUREKA           N/A     27  21  78 S7        30.17R
$$

NVZ013-014-290800-
SOUTH CENTRAL NEVADA

CITY           SKY/WX    TMP DP  RH WIND       PRES   REMARKS
TONOPAH        CLEAR     34  15  46 N7        30.17R
$$

NVZ017-020-022-290800-
SOUTHERN NEVADA

CITY           SKY/WX    TMP DP  RH WIND       PRES   REMARKS
LAS VEGAS      CLEAR     63  14  15 N17       29.98R
N. LAS VEGAS   CLEAR     60  15  17 N13       29.99R
NELLIS AFB     CLEAR     61  21  21 NW22      29.98R
HENDERSON      CLEAR     58  18  21 N18       30.01R
MERCURY        CLEAR     50  17  27 NE14      30.06R
$$




USA.gov is the U.S. government's official web portal to all federal, state and local government web resources and services.